Regional Weather Roundup
Issued by NWS

Home | Current Version | Previous Version | Text Only | Print | Product List | Glossary Off
Versions: 1 2 3 4 5 6 7 8 9 10 11 12 13 14 15 16 17 18 19 20 21 22 23 24 25 26 27 28 29 30 31 32 33 34 35 36 37 38 39 40 41 42 43 44 45 46 47 48 49 50

000
ASUS43 KOAX 020410
RWRNE

WEATHER ROUNDUP FOR NEBRASKA
NATIONAL WEATHER SERVICE OMAHA NE
1100 PM CDT WED JUL 01 2015

NOTES: SATELLITE DATA IS BEING USED TO AUGMENT CLOUD COVER ABOVE
       12000 FEET.
       "FAIR" INDICATES FEW OR NO CLOUDS BELOW 12,000 FEET WITH NO
       SIGNIFICANT WEATHER AND/OR OBSTRUCTIONS TO VISIBILITY.

  * THESE STATIONS DO NOT REPORT WEATHER SUCH AS RAIN...SNOW OR FOG.

NEZ001>004-019>022-054>056-020500-
NEBRASKA PANHANDLE

CITY           SKY/WX    TMP DP  RH WIND       PRES   REMARKS
SCOTTSBLUFF    CLOUDY    68  66  93 SE6       30.05S
ALLIANCE       MOCLDY    68  61  78 SW6       30.05R
CHADRON        PTCLDY    72  62  71 E5        30.00R
KIMBALL          N/A    N/A N/A N/A MISG        N/A
SIDNEY         CLOUDY    72  58  61 N8        30.10R
$$

NEZ057>060-069>072-079>082-020500-
SOUTHWEST NEBRASKA

CITY           SKY/WX    TMP DP  RH WIND       PRES   REMARKS
NORTH PLATTE   PTCLDY    73  60  63 NE8       29.97R
IMPERIAL       CLOUDY    73  58  59 E6        30.00R
LEXINGTON      MOCLDY    74  69  84 E7        29.97R
MCCOOK         CLOUDY    80  66  62 E5        29.94R
OGALLALA       CLOUDY    75  60  59 CALM      30.01R
$$

NEZ005>010-023>029-035>040-094-020500-
NORTH CENTRAL NEBRASKA

CITY           SKY/WX    TMP DP  RH WIND       PRES   REMARKS
VALENTINE      CLEAR     67  64  90 NW5       29.98R
AINSWORTH      MOCLDY    69  64  82 CALM      29.99R
BROKEN BOW     PTCLDY    70  66  87 CALM      29.96R
O`NEILL        CLOUDY    72  68  88 SE9       29.96R
THEDFORD       PTCLDY    72  65  80 CALM      30.00R
$$

NEZ041-046>049-061>064-073>077-083>087-020500-
SOUTH CENTRAL NEBRASKA

CITY           SKY/WX    TMP DP  RH WIND       PRES   REMARKS
GRAND ISLAND   MOCLDY    75  69  81 E9        29.93R
AURORA         PTCLDY    74  71  89 E8        29.92R
HASTINGS       PTCLDY    75  68  78 CALM      29.92R
HEBRON         CLEAR     74  68  83 CALM      29.89R
HOLDREGE       MOCLDY    72  67  83 CALM      29.94R
KEARNEY *      MOCLDY    73  66  78 NE3       29.94R
YORK           MOCLDY    73  68  83 E8        29.92R
$$

NEZ011>018-030>034-042>045-020500-
NORTHEAST NEBRASKA

CITY           SKY/WX    TMP DP  RH WIND       PRES   REMARKS
NORFOLK        CLEAR     69  66  90 E9        29.93S
ALBION         CLEAR     70  65  83 E6        29.95R
BLAIR          CLEAR     68  64  85 NE8       29.93S
COLUMBUS *     PTCLDY   N/A N/A N/A E8        29.92R
FREMONT        CLEAR     72  65  80 E6        29.93S
TEKAMAH        MOCLDY    71  65  81 E7        29.93R
WAYNE          CLEAR     66  65  94 CALM      29.96R
$$

NEZ050>053-065>068-078-088>093-020500-
SOUTHEAST NEBRASKA

CITY           SKY/WX    TMP DP  RH WIND       PRES   REMARKS
LINCOLN        CLOUDY    76  69  79 E12       29.91R
OMAHA EPPLEY   PTCLDY    72  66  81 E5        29.92R
BEATRICE       PTCLDY    75  71  87 NE8       29.89R
FALLS CITY     MOCLDY    75  69  81 E10       29.86R
NEBRASKA CITY  MOCLDY    72  66  81 NE12      29.91R
PLATTSMOUTH    PTCLDY    70  65  85 NE8       29.91S
$$

NEZ044-045-051>053-067-020500-
OMAHA AREA

CITY           SKY/WX    TMP DP  RH WIND       PRES   REMARKS
OMAHA EPPLEY   PTCLDY    72  66  81 E5        29.92R
BLAIR          CLEAR     68  64  85 NE8       29.93S
FREMONT        CLEAR     72  65  80 E6        29.93S
MILLARD        CLEAR     73  66  80 E7        29.91S
OFFUTT AFB     CLEAR     70  65  85 E9        29.91R
PLATTSMOUTH    PTCLDY    70  65  85 NE8       29.91S
WAHOO          FAIR      72  67  85 NE9       29.92S
$$



USA.gov is the U.S. government's official web portal to all federal, state and local government web resources and services.